Powrót do katalogu

ONEWEB-0434

AktywnyŁącznośćPO
NORAD 51631·PAYLOAD·🇬🇧 United Kingdom

Wystrzelony Feb 10, 2022 z Guiana Space Centre

Loading…

Następne Przeloty (najbliższe 24 godziny)

TLE

ŚwieżeSource: CelesTrak SupGP

Epoka: Sep 14, 2026, 23:48 UTC

1 51631C 22012K   26257.99218009 -.00002904  00000+0 -83295-2 0  2575
2 51631  87.8908  18.4138 0002087 119.8970 275.7051 13.10375709    19

Śledź ONEWEB-0434 w czasie rzeczywistym z AllMySat

Download on the App Store